Torna al catalogo

COSMOS 2251 DEB

AttivoVLEO
NORAD 35071·DEBRIS·🇷🇺 Russia

Lanciato Jun 16, 1993 da Plesetsk Cosmodrome

Loading…

Prossimi Passaggi (prossime 24 ore)

TLE

In scadenzaSource: Space-Track

Epoca: Sep 10, 2026, 11:59 UTC

1 35071U 93036AJA 26253.49992605  .00007974  00000-0  48307-3 0  9991
2 35071  73.9329 331.8199 0060153 163.2114 197.1088 15.09194158716290

Traccia COSMOS 2251 DEB in tempo reale con AllMySat

Download on the App Store